Regional Weather Roundup
Issued by NWS Grand Forks, ND

Home | Current Version | Previous Version | Graphics & Text | Print | Product List | Glossary On
Versions: 1 2 3 4 5 6 7 8 9 10 11 12 13 14 15 16 17 18 19 20 21 22 23 24 25 26 27 28 29 30 31 32 33 34 35 36 37 38 39 40 41 42 43 44 45 46 47 48 49 50
975
ASUS43 KFGF 262310
RWRFGF
PRAIRIE TO PINES  WEATHER ROUNDUP
NATIONAL WEATHER SERVICE EASTERN NORTH DAKOTA/GRAND FORKS ND
600 PM CDT SUN MAR 26 2017

 **SATELLITE DATA USED TO AUGMENT SKY COVER AT AUTOMATED STATIONS**
 *****  WEATHER ACROSS EASTERN NORTH DAKOTA  *****

CITY           SKY/WX    TMP DP  RH WIND       PRES   REMARKS
GRAND FORKS    FAIR      46  41  82 S3        29.93F
GRAND FRKS AFB PTSUNNY   46  43  87 SE3       29.94R
DEVILS LAKE    FAIR      51  41  68 N5        29.92R
FARGO          PTSUNNY   46  38  73 NW6       29.94S
WAHPETON ARPT  CLOUDY    43  34  70 CALM      29.95S
$$

 ***** WEATHER ACROSS CENTRAL AND WESTERN NORTH DAKOTA  *****

CITY           SKY/WX    TMP DP  RH WIND       PRES   REMARKS
BISMARCK       FAIR      61  36  39 E8        29.90R
MINOT          FAIR      58  40  51 E15       29.86S
JAMESTOWN      FAIR      51  40  65 CALM      29.91S
MINOT AFB      FAIR      53  43  67 SE14      29.85S
GARRISON         N/A     60  32  34 S5        29.86F
WILLISTON      FAIR      62  26  25 W14       29.85R
DICKINSON      CLOUDY    57  27  31 SW9       29.85S
HETTINGER      PTSUNNY   57  31  37 CALM      29.89F
$$

 *****  OTHER AIRPORT OBSERVATIONS IN OUR AREA  *****

CITY           SKY/WX    TMP DP  RH WIND       PRES   REMARKS
WALHALLA       NOT AVBL
GRAFTON AIRPOR FAIR      45  41  87 CALM      29.96S
VALLEY CITY AR FAIR      48  45  87 CALM      29.94R
CANDO          NOT AVBL
CAVALIER APRT  MOCLDY    41  37  87 N6        29.94F
GWINNER        CLEAR     48  39  71 MISG      29.93R
SHEYENNE NWR     N/A     50  36  58 N2        29.95S
ROLLA          FAIR      41  39  93 E6        29.92F
 ***** THE ABOVE OBSERVATIONS ARE NON NWS ARE NOT QUALITY
       CONTROLLED AND MAY MIS-REPORT RAIN FOR SNOW...
$$

  *****  WEATHER ACROSS NORTHERN MINNESOTA  *****

CITY           SKY/WX    TMP DP  RH WIND       PRES   REMARKS
FLAG ISLAND    FAIR      37  32  81 SE8       29.93S
WARROAD        FAIR      45  37  76 SW5       29.94S
ROSEAU         FAIR      46  39  76 CALM      29.93F
HALLOCK        FAIR      41  37  87 CALM      29.95S
THF RVR FALLS  FAIR     N/A N/A N/A CALM      29.94F
BAUDETTE       CLOUDY    40  33  76 NW6       29.93S
WASKISH        CLOUDY    45  34  65 CALM      29.93S
CROOKSTON      FAIR      45  39  81 CALM      29.95S
GREENBUSH NDAW   N/A     46  39  76 SE3         N/A
$$
  *****  WEATHER ACROSS CENTRAL AND WEST MINNESOTA  *****

CITY           SKY/WX    TMP DP  RH WIND       PRES   REMARKS
FOSSTON        FAIR      54  36  50 CALM      29.93S
BEMIDJI        CLOUDY    46  33  61 E3        29.91F
PARK RAPIDS    PTSUNNY   47  31  53 CALM      29.91S
ELBOW LAKE     CLOUDY    44  37  78 NW7       29.94S
WADENA         CLOUDY    45  34  65 NW5       29.92S
DETROIT LAKES  FAIR      45  36  70 NW5       29.93S
MOORHEAD       FAIR      45  37  76 CALM      29.95S
FERGUS FALLS   CLOUDY    45  36  70 NW8       29.97S
MORRIS MN      CLOUDY    46  37  71 NW8       29.93S
STAPLES        CLOUDY    46  34  61 CALM      29.92S
$$
  *****  WEATHER ELSEWHERE ACROSS MINNESOTA  *****

CITY           SKY/WX    TMP DP  RH WIND       PRES   REMARKS
DULUTH         FOG       33  33 100 E3        29.92R VSB 1/8
INTRNTL FALLS  CLOUDY    44  31  60 NE6       29.92S
ELY            FAIR      39  30  70 CALM      29.91S
CLOQUET        FOG       34  32  93 E3        29.93R VSB 1/4
WHEATON        CLOUDY    46  36  66 W3        29.96S
BRAINERD       CLOUDY    44  33  65 N3        29.93R
HIBBING        CLOUDY    42  32  67 CALM      29.91R
ALEXANDRIA     CLOUDY    46  35  65 N3        29.93S
SAINT CLOUD    CLOUDY    40  36  86 N3        29.93S
MINNEAPOLIS    CLOUDY    43  36  76 N7        29.91R
$$

  *****  WEATHER ACROSS SOUTH DAKOTA  *****

CITY           SKY/WX    TMP DP  RH WIND       PRES   REMARKS
SIOUX FALLS    CLOUDY    48  39  71 N7        29.92S
BROOKINGS      NOT AVBL
WATERTOWN      CLOUDY    44  37  76 N5        29.92S
HURON          FAIR      49  38  65 N3        29.93S
SISSETON         N/A     47  40  76 NE5       29.93R
ABERDEEN       PTSUNNY   50  35  56 VRB3      29.93F
MITCHELL       CLOUDY    49  39  68 N6        29.93F
PIERRE         CLOUDY    45  39  79 NW3       29.92F
MOBRIDGE       PTSUNNY   54  35  48 S6        29.89S
RAPID CITY     LGT RAIN  43  38  82 N3        29.93F
$$

  *****  SOME WEATHER IN NEARBY STATES *****

CITY           SKY/WX    TMP DP  RH WIND       PRES   REMARKS
GLASGOW MT     FAIR      56  20  24 W12       29.88S
GREAT FALLS MT FAIR      55  16  21 W9        29.82F
CHEYENNE WY    FAIR      45  33  63 N13G23    29.92S
SCOTTSBLUFF NE CLOUDY    53  37  54 N12       29.92S
OMAHA NE       CLOUDY    49  41  74 N6        29.90S
DES MOINES IA  CLOUDY    48  43  82 NW6       29.90R
DAVENPORT IA   CLOUDY    51  49  92 W12       29.86R FOG
CHICAGO IL     CLOUDY    58  51  78 W9        29.82R
EAU CLAIRE WI  CLOUDY    43  38  82 N3        29.88S
LA CROSSE WI   CLOUDY    42  40  92 W7        29.88R FOG
$$

  *****  SOME NATIONAL WEATHER *****

CITY           SKY/WX    TMP DP  RH WIND       PRES   REMARKS
LA GUARDIA NY  CLOUDY    43  35  73 NE10      30.38F
RALEIGH NC     MOCLDY    73  47  39 S6        30.13S
ATLANTA GA     FAIR      77  53  43 SW13G18   30.04S
NEW ORLEANS LA FAIR      78  66  66 SE15G23   29.98S
OKLAHOMA CITY  PTSUNNY   76  57  51 S18G25    29.67F
ALBUQUERQUE NM FAIR      65  23  20 W12G20    29.92S
SALT LAKE CITY CLOUDY    54  30  40 CALM      29.96F
LOS ANGELES CA FAIR      63  54  72 W14       30.04F
BOISE ID       CLOUDY    49  34  56 CALM      29.94F
SEATTLE WA     LGT RAIN  47  45  93 CALM      29.76F FOG
$$

*** WEATHER ACROSS MANITOBA...SASKATCHEWAN AND ONTARIO ***
                ***ONTARIO***

CITY           SKY/WX    TMP DP  RH WIND       PRES   REMARKS
GERALDTON      LGT RAIN  34  27  75 S3        29.93R
THUNDER BAY    CLOUDY    34  32  93 E6        29.95S
SIOUX LOOKOUT  PTSUNNY   43  30  61 NW3       29.90S
TORONTO        CLOUDY    41  36  81 E7        30.01F
BIG TROUT LK   CLOUDY    39  30  70 W7        29.85S
PICKLE LAKE    MOSUNNY   46  28  49 W3        29.86S
DRYDEN         CLOUDY    41  34  75 W8        29.90F
KENORA         MOSUNNY   43  32  65 CALM      29.92S
$$
                *** MANITOBA***

CITY           SKY/WX    TMP DP  RH WIND       PRES   REMARKS
BRANDON        MOSUNNY   43  36  75 E10       29.91S
DAUPHIN        SUNNY     39  34  81 NE8       29.94R
ISLAND LAKE    MOSUNNY   36  25  64 W8        29.92S
PILOT MOUND      N/A     43  36  75 E3          N/A
THE PAS        MOSUNNY   34  21  60 N3        29.97S
THOMPSON       CLOUDY    25  19  80 N9        29.98R WCI  15
WINNIPEG       MOSUNNY   45  36  70 N7        29.95S
LYNN LAKE      PTSUNNY   28  19  69 NE12      29.99R WCI  18
CHURCHILL      LGT SNOW  14  10  85 N13       30.03R DRFTSNOWWCI   0
GILLAM         CLOUDY    21  16  79 NW12      29.96R WCI   9
$$
                ***SASKATCHEWAN***

CITY           SKY/WX    TMP DP  RH WIND       PRES   REMARKS
ESTEVAN        CLOUDY    48  41  76 N6        29.86R
KINDERSLEY     MOSUNNY   39  34  81 E9        29.85S
LLOYDMINSTER   MOSUNNY   45  34  65 SE7       29.86F
PRINCE ALBERT  MOSUNNY   34  25  69 SE7       29.95R
REGINA         PTSUNNY   55  21  26 W9        29.83S
YORKTON        CLOUDY    43  37  81 SE14      29.86S
N. BATTLEFORD  SUNNY     39  32  75 SE8       29.92R
LA RONGE       MOSUNNY   32  21  64 CALM      29.97S
SASKATOON      CLOUDY    34  30  86 N8        29.92S
SWIFT CURRENT  MOSUNNY   52  23  32 W12G18    29.82R
$$
NOTE: THESE ARE AUTOMATED STATIONS WITH LIMITED QUALITY CONTROL
      "FAIR" INDICATES FEW OR NO CLOUDS BELOW 12,000 FEET WITH NO
      SIGNIFICANT WEATHER AND/OR OBSTRUCTIONS TO VISIBILITY.
      SKY/WX - SKY CONDITION AND SIGNIFICANT WEATHER.
      TMP - AIR TEMPERATURE.    DP   - DEWPOINT TEMPERATURE.
      RH  - RELATIVE HUMIDITY.  PRES - PRESSURE.
      HX  - HEAT INDEX.         WCI  - WIND CHILL INDEX.
$




USA.gov is the U.S. government's official web portal to all federal, state and local government web resources and services.